Find Starlink 5972

NORAD ID: 56362 Int'l Des: 2023-058 Owner: SPXS Country: US Constellation: starlink operational
LEOCIRCULARRETROGRADESSO

Live-Position

3D-Globus wird geladen...

Über Starlink 5972

Beschreibung wird geladen...

Nächste Überflüge

Passes for default location (London). Set your location on the main map for personalized predictions.

Höhenverlauf

Loading altitude history...

Zweizeiliger Elementsatz

1 56362U 23058AX 26106.55071240 .00000882 00000-0 65304-4 0 9999
2 56362 97.6035 108.5438 0001739 108.5394 251.6022 15.05661910163892
Epoch: 16. Apr. 2026 • Age: 26 hours

Aktueller Status

Höhe 557.2 km
Geschwindigkeit 7.58 km/s
Subsatellitenpunkt -19.83°S, 153.22°W
Startdatum 27. Apr. 2023
Alter 2.9 years
Typ internet

Technische Details

Klassifizierung Payload
Masse 300.00 kg
Trockenmasse 260.00 kg
Gesamtmasse 300.00 kg
Länge 0.20 m
Durchmesser 2.80 m
Spannweite 9.00 m
Form Box + pan
Hersteller SPXS
Bus-Typ Starlink
Phasenstatus In Orbit
Besitzer/Staat SPXS/US

Most Searched